| time (UTC) | temp F | wind direction | speed MPH | gust MPH | rain 1hr in | rain 24hr in | rain mn in | humidity % | barometer mb |
| 20260505034918 | 67 | 152 | 4.0 | 5.0 | 0.00 | 0.00 | 0.00 | 70 | 1005.6 |
| 20260505034414 | 67 | 185 | 1.0 | 1.0 | 0.00 | 0.00 | 0.00 | 71 | 1005.9 |
| 20260505033912 | 67 | 196 | 2.0 | 3.0 | 0.00 | 0.00 | 0.00 | 71 | 1005.8 |
| 20260505033408 | 67 | 194 | 2.0 | 3.0 | 0.00 | 0.00 | 0.00 | 71 | 1005.9 |
| 20260505032907 | 67 | 225 | 0.0 | 1.0 | 0.00 | 0.00 | 0.00 | 71 | 1006.1 |
| 20260505032402 | 67 | 200 | 2.0 | 4.0 | 0.00 | 0.00 | 0.00 | 72 | 1006.1 |
| 20260505031859 | 67 | 215 | 0.0 | 1.0 | 0.00 | 0.00 | 0.00 | 71 | 1006.0 |
| 20260505031356 | 68 | 233 | 0.0 | 0.0 | 0.00 | 0.00 | 0.00 | 70 | 1005.9 |
| 20260505030854 | 67 | 191 | 2.0 | 3.0 | 0.00 | 0.00 | 0.00 | 70 | 1005.9 |
| 20260505030349 | 67 | 203 | 1.0 | 1.0 | 0.00 | 0.00 | 0.00 | 71 | 1006.0 |
| 20260505025845 | 67 | 196 | 2.0 | 3.0 | 0.00 | 0.00 | 0.00 | 70 | 1005.9 |
| 20260505025343 | 67 | 196 | 1.0 | 1.0 | 0.00 | 0.00 | 0.00 | 70 | 1006.1 |
| 20260505024841 | 67 | 190 | 2.0 | 3.0 | 0.00 | 0.00 | 0.00 | 70 | 1005.8 |
| 20260505024339 | 66 | 221 | 1.0 | 1.0 | 0.00 | 0.00 | 0.00 | 71 | 1005.9 |
| 20260505023835 | 66 | 176 | 1.0 | 1.0 | 0.00 | 0.00 | 0.00 | 73 | 1005.8 |
| 20260505023332 | 67 | 230 | 0.0 | 0.0 | 0.00 | 0.00 | 0.00 | 73 | 1005.5 |
| 20260505022830 | 68 | 198 | 0.0 | 1.0 | 0.00 | 0.00 | 0.00 | 69 | 1005.7 |
| 20260505022326 | 68 | 219 | 0.0 | 0.0 | 0.00 | 0.00 | 0.00 | 70 | 1005.6 |
| 20260505021824 | 68 | 219 | 2.0 | 3.0 | 0.00 | 0.00 | 0.00 | 69 | 1005.6 |
| 20260505021320 | 68 | 102 | 0.0 | 1.0 | 0.00 | 0.00 | 0.00 | 69 | 1005.7 |
| 20260505020816 | 68 | 210 | 1.0 | 1.0 | 0.00 | 0.00 | 0.00 | 70 | 1005.5 |
| 20260505020312 | 68 | 132 | 2.0 | 3.0 | 0.00 | 0.00 | 0.00 | 70 | 1005.7 |
| 20260505015809 | 68 | 198 | 2.0 | 3.0 | 0.00 | 0.00 | 0.00 | 68 | 1005.3 |
| 20260505015306 | 68 | 218 | 1.0 | 1.0 | 0.00 | 0.00 | 0.00 | 68 | 1005.5 |
| 20260505014803 | 68 | 182 | 2.0 | 3.0 | 0.00 | 0.00 | 0.00 | 67 | 1005.4 |
| 20260505014300 | 69 | 144 | 3.0 | 3.0 | 0.00 | 0.00 | 0.00 | 67 | 1005.4 |
| 20260505013757 | 69 | 195 | 1.0 | 1.0 | 0.00 | 0.00 | 0.00 | 67 | 1005.3 |
| 20260505013254 | 69 | 200 | 2.0 | 3.0 | 0.00 | 0.00 | 0.00 | 66 | 1005.2 |
| 20260505012752 | 69 | 234 | 1.0 | 1.0 | 0.00 | 0.00 | 0.00 | 65 | 1005.4 |
| 20260505012249 | 70 | 217 | 2.0 | 3.0 | 0.00 | 0.00 | 0.00 | 65 | 1005.5 |
| 20260505011745 | 70 | 172 | 2.0 | 3.0 | 0.00 | 0.00 | 0.00 | 64 | 1005.3 |
| 20260505011242 | 70 | 107 | 2.0 | 3.0 | 0.00 | 0.00 | 0.00 | 63 | 1005.2 |
| 20260505010738 | 71 | 145 | 1.0 | 1.0 | 0.00 | 0.00 | 0.00 | 63 | 1005.1 |
| 20260505010234 | 71 | 162 | 2.0 | 3.0 | 0.00 | 0.00 | 0.00 | 62 | 1005.2 |
| 20260505005731 | 71 | 212 | 1.0 | 3.0 | 0.00 | 0.00 | 0.00 | 61 | 1004.9 |
| 20260505005228 | 72 | 189 | 3.0 | 3.0 | 0.00 | 0.00 | 0.00 | 61 | 1005.0 |
| 20260505004725 | 72 | 166 | 3.0 | 4.0 | 0.00 | 0.00 | 0.00 | 59 | 1005.1 |
| 20260505004221 | 72 | 239 | 1.0 | 1.0 | 0.00 | 0.00 | 0.00 | 59 | 1005.0 |
| 20260505003719 | 73 | 206 | 3.0 | 4.0 | 0.00 | 0.00 | 0.00 | 58 | 1005.0 |
| 20260505003217 | 73 | 242 | 2.0 | 3.0 | 0.00 | 0.00 | 0.00 | 59 | 1004.9 |
| 20260505002712 | 73 | 178 | 2.0 | 4.0 | 0.00 | 0.00 | 0.00 | 59 | 1005.0 |
| 20260505002210 | 73 | 191 | 5.0 | 7.0 | 0.00 | 0.00 | 0.00 | 58 | 1004.8 |
| 20260505001707 | 73 | 222 | 4.0 | 5.0 | 0.00 | 0.00 | 0.00 | 57 | 1004.9 |
| 20260505001205 | 74 | 186 | 8.0 | 10.0 | 0.00 | 0.00 | 0.00 | 57 | 1005.1 |
| 20260505000702 | 74 | 256 | 3.0 | 4.0 | 0.00 | 0.00 | 0.00 | 57 | 1005.2 |
| 20260505000200 | 74 | 195 | 7.0 | 10.0 | 0.00 | 0.00 | 0.00 | 56 | 1005.1 |
| 20260504235656 | 74 | 201 | 4.0 | 4.0 | 0.00 | 0.00 | 0.00 | 56 | 1004.9 |
| 20260504235152 | 75 | 180 | 6.0 | 10.0 | 0.00 | 0.00 | 0.00 | 55 | 1005.0 |
| 20260504234650 | 75 | 218 | 6.0 | 8.0 | 0.00 | 0.00 | 0.00 | 55 | 1004.9 |
| 20260504234147 | 75 | 183 | 8.0 | 11.0 | 0.00 | 0.00 | 0.00 | 54 | 1004.9 |
| 20260504233642 | 76 | 230 | 10.0 | 11.0 | 0.00 | 0.00 | 0.00 | 53 | 1004.9 |
| 20260504233138 | 76 | 188 | 2.0 | 3.0 | 0.00 | 0.00 | 0.00 | 55 | 1004.9 |
| 20260504232637 | 76 | 213 | 7.0 | 8.0 | 0.00 | 0.00 | 0.00 | 52 | 1004.8 |
| 20260504232133 | 77 | 244 | 13.0 | 23.0 | 0.00 | 0.00 | 0.00 | 51 | 1004.9 |
| 20260504231630 | 77 | 247 | 6.0 | 10.0 | 0.00 | 0.00 | 0.00 | 54 | 1004.8 |
| 20260504231126 | 77 | 191 | 3.0 | 4.0 | 0.00 | 0.00 | 0.00 | 52 | 1004.7 |
| 20260504230622 | 77 | 206 | 10.0 | 14.0 | 0.00 | 0.00 | 0.00 | 51 | 1004.7 |
| 20260504230121 | 77 | 216 | 4.0 | 4.0 | 0.00 | 0.00 | 0.00 | 52 | 1004.7 |
| 20260504225619 | 77 | 253 | 5.0 | 5.0 | 0.00 | 0.00 | 0.00 | 51 | 1004.8 |
| 20260504225115 | 77 | 180 | 9.0 | 14.0 | 0.00 | 0.00 | 0.00 | 51 | 1004.6 |
| 20260504224612 | 78 | 187 | 3.0 | 5.0 | 0.00 | 0.00 | 0.00 | 52 | 1004.7 |
| 20260504224109 | 77 | 220 | 6.0 | 7.0 | 0.00 | 0.00 | 0.00 | 51 | 1004.6 |
| 20260504223606 | 78 | 158 | 9.0 | 11.0 | 0.00 | 0.00 | 0.00 | 52 | 1004.6 |
| 20260504223101 | 78 | 213 | 3.0 | 4.0 | 0.00 | 0.00 | 0.00 | 52 | 1004.6 |
| 20260504222558 | 78 | 217 | 5.0 | 5.0 | 0.00 | 0.00 | 0.00 | 51 | 1004.6 |
| 20260504222056 | 77 | 213 | 5.0 | 7.0 | 0.00 | 0.00 | 0.00 | 52 | 1004.6 |
| 20260504221553 | 77 | 162 | 7.0 | 8.0 | 0.00 | 0.00 | 0.00 | 51 | 1004.8 |
| 20260504221049 | 77 | 224 | 3.0 | 4.0 | 0.00 | 0.00 | 0.00 | 53 | 1004.7 |
| 20260504220546 | 77 | 224 | 4.0 | 8.0 | 0.00 | 0.00 | 0.00 | 50 | 1004.9 |
| 20260504220043 | 77 | 201 | 11.0 | 15.0 | 0.00 | 0.00 | 0.00 | 50 | 1004.8 |
| 20260504215539 | 77 | 197 | 18.0 | 23.0 | 0.00 | 0.00 | 0.00 | 49 | 1004.7 |
| 20260504215037 | 78 | 228 | 11.0 | 14.0 | 0.00 | 0.00 | 0.00 | 48 | 1004.9 |
| 20260504214533 | 78 | 237 | 5.0 | 7.0 | 0.00 | 0.00 | 0.00 | 49 | 1004.8 |
| 20260504214029 | 78 | 213 | 4.0 | 4.0 | 0.00 | 0.00 | 0.00 | 50 | 1004.6 |
| 20260504213526 | 78 | 221 | 4.0 | 5.0 | 0.00 | 0.00 | 0.00 | 51 | 1004.9 |
| 20260504213023 | 78 | 213 | 12.0 | 18.0 | 0.00 | 0.00 | 0.00 | 48 | 1004.9 |
| 20260504212519 | 78 | 193 | 6.0 | 7.0 | 0.00 | 0.00 | 0.00 | 52 | 1005.0 |
| 20260504212017 | 78 | 209 | 8.0 | 10.0 | 0.00 | 0.00 | 0.00 | 50 | 1005.0 |
| 20260504211513 | 79 | 194 | 10.0 | 12.0 | 0.00 | 0.00 | 0.00 | 50 | 1005.1 |
| 20260504211011 | 78 | 197 | 5.0 | 7.0 | 0.00 | 0.00 | 0.00 | 51 | 1005.3 |
| 20260504210508 | 78 | 198 | 5.0 | 7.0 | 0.00 | 0.00 | 0.00 | 51 | 1005.3 |
| 20260504210004 | 78 | 192 | 8.0 | 15.0 | 0.00 | 0.00 | 0.00 | 50 | 1005.2 |
| 20260504205502 | 79 | 238 | 10.0 | 14.0 | 0.00 | 0.00 | 0.00 | 49 | 1005.4 |
| 20260504205000 | 79 | 270 | 3.0 | 4.0 | 0.00 | 0.00 | 0.00 | 51 | 1005.3 |
| 20260504204458 | 79 | 210 | 7.0 | 10.0 | 0.00 | 0.00 | 0.00 | 53 | 1005.6 |
| 20260504203957 | 80 | 193 | 5.0 | 8.0 | 0.00 | 0.00 | 0.00 | 53 | 1005.4 |
| 20260504203454 | 79 | 341 | 4.0 | 7.0 | 0.00 | 0.00 | 0.00 | 49 | 1005.5 |
| 20260504202950 | 79 | 243 | 7.0 | 8.0 | 0.00 | 0.00 | 0.00 | 50 | 1005.6 |
| 20260504202446 | 79 | 222 | 8.0 | 10.0 | 0.00 | 0.00 | 0.00 | 51 | 1005.5 |
| 20260504201943 | 80 | 144 | 11.0 | 14.0 | 0.00 | 0.00 | 0.00 | 49 | 1005.9 |
| 20260504201441 | 79 | 267 | 3.0 | 5.0 | 0.00 | 0.00 | 0.00 | 52 | 1005.9 |
| 20260504200938 | 79 | 278 | 4.0 | 5.0 | 0.00 | 0.00 | 0.00 | 52 | 1006.0 |
| 20260504200435 | 79 | 283 | 13.0 | 18.0 | 0.00 | 0.00 | 0.00 | 49 | 1006.1 |
| 20260504195931 | 78 | 213 | 8.0 | 12.0 | 0.00 | 0.00 | 0.00 | 52 | 1006.2 |
| 20260504195427 | 79 | 211 | 11.0 | 15.0 | 0.00 | 0.00 | 0.00 | 50 | 1006.1 |
| 20260504194924 | 78 | 105 | 9.0 | 15.0 | 0.00 | 0.00 | 0.00 | 52 | 1006.0 |
| 20260504194420 | 80 | 163 | 9.0 | 11.0 | 0.00 | 0.00 | 0.00 | 50 | 1006.1 |
| 20260504193916 | 79 | 192 | 4.0 | 5.0 | 0.00 | 0.00 | 0.00 | 53 | 1006.1 |
| 20260504193414 | 78 | 206 | 14.0 | 21.0 | 0.00 | 0.00 | 0.00 | 50 | 1006.1 |
| 20260504192912 | 78 | 178 | 5.0 | 10.0 | 0.00 | 0.00 | 0.00 | 51 | 1006.1 |
| 20260504192409 | 78 | 188 | 9.0 | 14.0 | 0.00 | 0.00 | 0.00 | 50 | 1006.3 |
| 20260504191908 | 78 | 185 | 12.0 | 15.0 | 0.00 | 0.00 | 0.00 | 50 | 1006.3 |
| 20260504191405 | 78 | 204 | 11.0 | 14.0 | 0.00 | 0.00 | 0.00 | 49 | 1006.1 |
| 20260504190900 | 78 | 279 | 17.0 | 23.0 | 0.00 | 0.00 | 0.00 | 48 | 1006.4 |
| 20260504190356 | 78 | 269 | 9.0 | 14.0 | 0.00 | 0.00 | 0.00 | 51 | 1006.3 |
| 20260504185853 | 79 | 233 | 9.0 | 15.0 | 0.00 | 0.00 | 0.00 | 50 | 1006.3 |
| 20260504185350 | 78 | 187 | 6.0 | 7.0 | 0.00 | 0.00 | 0.00 | 51 | 1006.4 |
| 20260504184846 | 78 | 238 | 11.0 | 18.0 | 0.00 | 0.00 | 0.00 | 49 | 1006.5 |
| 20260504184342 | 78 | 199 | 4.0 | 8.0 | 0.00 | 0.00 | 0.00 | 53 | 1006.4 |
| 20260504183838 | 77 | 190 | 15.0 | 19.0 | 0.00 | 0.00 | 0.00 | 50 | 1006.9 |
| 20260504183336 | 78 | 262 | 9.0 | 12.0 | 0.00 | 0.00 | 0.00 | 49 | 1006.8 |
| 20260504182833 | 77 | 208 | 15.0 | 19.0 | 0.00 | 0.00 | 0.00 | 50 | 1006.9 |
| 20260504182331 | 77 | 231 | 11.0 | 18.0 | 0.00 | 0.00 | 0.00 | 51 | 1006.5 |
| 20260504181827 | 77 | 211 | 9.0 | 12.0 | 0.00 | 0.00 | 0.00 | 51 | 1006.9 |
| 20260504181325 | 77 | 156 | 12.0 | 14.0 | 0.00 | 0.00 | 0.00 | 52 | 1006.9 |
| 20260504180824 | 77 | 203 | 10.0 | 12.0 | 0.00 | 0.00 | 0.00 | 50 | 1007.1 |
| 20260504180322 | 77 | 180 | 7.0 | 11.0 | 0.00 | 0.00 | 0.00 | 52 | 1007.1 |
| 20260504175820 | 77 | 213 | 11.0 | 14.0 | 0.00 | 0.00 | 0.00 | 50 | 1007.0 |
| 20260504175316 | 77 | 221 | 8.0 | 11.0 | 0.00 | 0.00 | 0.00 | 50 | 1007.0 |
| 20260504174815 | 76 | 189 | 13.0 | 15.0 | 0.00 | 0.00 | 0.00 | 49 | 1007.0 |
| 20260504174311 | 76 | 145 | 12.0 | 16.0 | 0.00 | 0.00 | 0.00 | 51 | 1007.2 |
| 20260504173808 | 76 | 191 | 7.0 | 11.0 | 0.00 | 0.00 | 0.00 | 52 | 1007.3 |
| 20260504173305 | 76 | 200 | 8.0 | 10.0 | 0.00 | 0.00 | 0.00 | 54 | 1007.3 |
| 20260504172802 | 76 | 251 | 16.0 | 21.0 | 0.00 | 0.00 | 0.00 | 50 | 1007.5 |
| 20260504172259 | 76 | 207 | 6.0 | 8.0 | 0.00 | 0.00 | 0.00 | 51 | 1007.2 |
| 20260504171754 | 76 | 223 | 14.0 | 21.0 | 0.00 | 0.00 | 0.00 | 51 | 1007.4 |
| 20260504171252 | 76 | 147 | 10.0 | 14.0 | 0.00 | 0.00 | 0.00 | 51 | 1007.7 |
| 20260504170749 | 75 | 213 | 9.0 | 14.0 | 0.00 | 0.00 | 0.00 | 53 | 1007.3 |
| 20260504170246 | 75 | 213 | 8.0 | 10.0 | 0.00 | 0.00 | 0.00 | 54 | 1007.6 |
| 20260504160204 | 74 | 233 | 4.0 | 5.0 | 0.00 | 0.00 | 0.00 | 51 | 1008.0 |
| 20260504151132 | 72 | 202 | 13.0 | 15.0 | 0.00 | 0.00 | 0.00 | 52 | 1008.5 |
| 20260504150630 | 72 | 193 | 2.0 | 7.0 | 0.00 | 0.00 | 0.00 | 54 | 1008.6 |
| 20260504150126 | 71 | 205 | 13.0 | 15.0 | 0.00 | 0.00 | 0.00 | 52 | 1008.5 |
| 20260504141055 | 68 | 194 | 10.0 | 11.0 | 0.00 | 0.00 | 0.00 | 57 | 1009.0 |
| 20260504140551 | 68 | 227 | 7.0 | 10.0 | 0.00 | 0.00 | 0.00 | 57 | 1008.9 |
| 20260504130516 | 64 | 190 | 11.0 | 12.0 | 0.00 | 0.00 | 0.00 | 60 | 1009.4 |
| 20260504110403 | 61 | 124 | 4.0 | 5.0 | 0.00 | 0.00 | 0.00 | 63 | 1009.5 |
| 20260504100320 | 63 | 218 | 4.0 | 5.0 | 0.00 | 0.00 | 0.00 | 60 | 1010.0 |
| 20260504081714 | 64 | 223 | 4.0 | 4.0 | 0.00 | 0.00 | 0.00 | 56 | 1010.5 |
| 20260504081210 | 64 | 222 | 3.0 | 4.0 | 0.00 | 0.00 | 0.00 | 56 | 1010.3 |
| 20260504080706 | 64 | 226 | 4.0 | 5.0 | 0.00 | 0.00 | 0.00 | 56 | 1010.2 |
| 20260504080203 | 64 | 244 | 0.0 | 1.0 | 0.00 | 0.00 | 0.00 | 56 | 1010.3 |
| 20260504070131 | 64 | 222 | 1.0 | 1.0 | 0.00 | 0.00 | 0.00 | 56 | 1010.9 |
| 20260504050519 | 67 | 197 | 3.0 | 4.0 | 0.00 | 0.00 | 0.00 | 55 | 1011.6 |
| 20260504050016 | 67 | 218 | 3.0 | 3.0 | 0.00 | 0.00 | 0.00 | 54 | 1011.4 |
| 20260504045513 | 67 | 225 | 5.0 | 7.0 | 0.00 | 0.00 | 0.00 | 55 | 1011.5 |
| 20260504045008 | 67 | 198 | 5.0 | 7.0 | 0.00 | 0.00 | 0.00 | 55 | 1011.6 |
| 20260504044506 | 67 | 248 | 2.0 | 4.0 | 0.00 | 0.00 | 0.00 | 54 | 1011.7 |
| 20260504044003 | 67 | 203 | 2.0 | 4.0 | 0.00 | 0.00 | 0.00 | 54 | 1011.6 |
| 20260504043500 | 67 | 232 | 3.0 | 4.0 | 0.00 | 0.00 | 0.00 | 54 | 1011.6 |
| 20260504042958 | 67 | 179 | 2.0 | 3.0 | 0.00 | 0.00 | 0.00 | 54 | 1011.8 |
| 20260504042454 | 67 | 267 | 2.0 | 3.0 | 0.00 | 0.00 | 0.00 | 54 | 1011.6 |
| 20260504041951 | 67 | 257 | 4.0 | 5.0 | 0.00 | 0.00 | 0.00 | 53 | 1011.6 |
| 20260504041447 | 67 | 200 | 2.0 | 3.0 | 0.00 | 0.00 | 0.00 | 53 | 1011.6 |
| 20260504040943 | 67 | 245 | 3.0 | 4.0 | 0.00 | 0.00 | 0.00 | 53 | 1011.6 |
| 20260504040441 | 68 | 214 | 2.0 | 4.0 | 0.00 | 0.00 | 0.00 | 53 | 1011.8 |
| 20260504035936 | 68 | 210 | 4.0 | 5.0 | 0.00 | 0.00 | 0.00 | 53 | 1011.8 |
| 20260504035434 | 68 | 245 | 3.0 | 3.0 | 0.00 | 0.00 | 0.00 | 53 | 1011.7 |